Beaufort, SC

10:16 PM EST on December 03, 2016 (GMT -0500)
Beaufort Marine Corps Air Station

Weather History for KNBC - November, 2013

Change the Weather History Date:

Friday, November 22, 2013

  Actual Average Record
Temperature  
Mean Temperature 66 °F -  
Max Temperature 75 °F 66 °F 83 °F (1942)
Min Temperature 57 °F 45 °F 24 °F (1937)
Cooling Degree Days 1    
Growing Degree Days 16 (Base 50)    
Moisture  
Dew Point 60 °F    
Average Humidity 87    
Maximum Humidity 94    
Minimum Humidity 66    
Precipitation  
Precipitation 0.00 in - - ()
Sea Level Pressure  
Sea Level Pressure 30.26 in    
Wind  
Wind Speed 4 mph (ENE)    
Max Wind Speed 7 mph    
Max Gust Speed -    
Visibility 8 miles    
Events      
Averages and records for this station are not official NWS values.
T = Trace of Precipitation, MM = Missing Value Source: NWS Daily Summary

Daily Weather History Graph

Daily Weather History Graph

Search for Another Location

Airport or City:

Trip Planner

Search our weather history database for the weather conditions in past years. The results will help you decide how hot, cold, wet, or windy it might be!

Date:

Astronomy

Nov. 22, 2013 Rise Set
Actual Time 6:58 AM EST 5:18 PM EST
Civil Twilight 6:32 AM EST 5:45 PM EST
Nautical Twilight 6:02 AM EST 6:15 PM EST
Astronomical Twilight 5:33 AM EST 6:44 PM EST
Moon 9:45 PM EST (11/22) 10:44 AM EST (11/22)
Length of Visible Light 11h 12m
Length of Day
10h 20m
Waning Gibbous, 78% of the Moon is Illuminated
Nov 22
Waning Gibbous
Nov 25
Last Quarter
Dec 2
New
Dec 9
First Quarter
Dec 17
Full

Hourly Weather History & Observations

Time (EST) Temp. Dew Point Humidity Pressure Visibility Wind Dir Wind Speed Gust Speed Precip Events Conditions
12:56 AM 60.1 °F 55.9 °F 86% 30.32 in 10.0 mi NNE 6.9 mph - N/A   Mostly Cloudy
1:32 AM 57.9 °F 55.0 °F 90% 30.30 in 10.0 mi NE 4.6 mph - N/A   Scattered Clouds
1:51 AM 57.2 °F 55.4 °F 94% 30.30 in 10.0 mi NE 5.8 mph - N/A   Mostly Cloudy
1:56 AM 59.0 °F 57.0 °F 93% 30.31 in 10.0 mi NNE 3.5 mph - N/A   Mostly Cloudy
2:04 AM 60.1 °F 57.0 °F 90% 30.30 in 10.0 mi NNE 4.6 mph - N/A   Mostly Cloudy
2:31 AM 60.1 °F 57.9 °F 93% 30.30 in 7.0 mi NE 3.5 mph - N/A   Overcast
2:56 AM 60.1 °F 57.9 °F 93% 30.30 in 7.0 mi NNE 5.8 mph - N/A   Overcast
3:52 AM 62.6 °F 60.8 °F 94% 30.29 in 8.0 mi ENE 5.8 mph - N/A   Overcast
3:56 AM 62.1 °F 60.1 °F 93% 30.29 in 8.0 mi ENE 4.6 mph - N/A   Overcast
4:28 AM 62.1 °F 59.0 °F 90% 30.28 in 9.0 mi East 4.6 mph - N/A   Overcast
4:49 AM 62.1 °F 60.1 °F 93% 30.28 in 8.0 mi Calm Calm - N/A   Overcast
4:56 AM 62.1 °F 60.1 °F 93% 30.29 in 8.0 mi Variable 3.5 mph - N/A   Overcast
5:56 AM 61.0 °F 59.0 °F 93% 30.29 in 6.0 mi NNE 3.5 mph - N/A   Overcast
6:56 AM 61.0 °F 59.0 °F 93% 30.30 in 4.0 mi NE 4.6 mph - N/A   Overcast
7:43 AM 61.0 °F 59.0 °F 93% 30.30 in 7.0 mi Calm Calm - N/A   Mostly Cloudy
7:56 AM 61.0 °F 59.0 °F 93% 30.31 in 6.0 mi NE 3.5 mph - N/A   Mostly Cloudy
8:03 AM 61.0 °F 59.0 °F 93% 30.30 in 6.0 mi Calm Calm - N/A   Mostly Cloudy
8:56 AM 63.0 °F 59.0 °F 87% 30.31 in 10.0 mi NNE 3.5 mph - N/A   Mostly Cloudy
9:56 AM 66.0 °F 60.1 °F 81% 30.31 in 10.0 mi ESE 4.6 mph - N/A   Mostly Cloudy
10:56 AM 73.0 °F 62.1 °F 68% 30.30 in 10.0 mi Variable 4.6 mph - N/A   Mostly Cloudy
11:56 AM 73.0 °F 62.1 °F 68% 30.28 in 10.0 mi Calm Calm - N/A   Overcast
12:56 PM 73.9 °F 63.0 °F 68% 30.25 in 10.0 mi ESE 4.6 mph - N/A   Mostly Cloudy
1:56 PM 75.0 °F 63.0 °F 66% 30.22 in 10.0 mi Calm Calm - N/A   Mostly Cloudy
2:56 PM 73.0 °F 64.0 °F 73% 30.21 in 10.0 mi SE 3.5 mph - N/A   Mostly Cloudy
3:56 PM 72.0 °F 64.0 °F 76% 30.21 in 10.0 mi Calm Calm - N/A   Mostly Cloudy
4:56 PM 70.0 °F 63.0 °F 78% 30.20 in 10.0 mi Calm Calm - N/A   Mostly Cloudy
5:56 PM 66.9 °F 63.0 °F 87% 30.21 in 10.0 mi Calm Calm - 0.00 in   Mostly Cloudy
6:56 PM 66.0 °F 63.0 °F 90% 30.20 in 10.0 mi Calm Calm - N/A   Overcast
7:56 PM 66.0 °F 63.0 °F 90% 30.20 in 10.0 mi Calm Calm - N/A   Overcast
8:56 PM 66.0 °F 63.0 °F 90% 30.19 in 10.0 mi SSE 3.5 mph - N/A   Overcast
9:56 PM 64.9 °F 63.0 °F 93% 30.19 in 10.0 mi Calm Calm - N/A   Mostly Cloudy
10:56 PM 64.9 °F 62.1 °F 90% 30.18 in 10.0 mi Calm Calm - N/A   Overcast
11:51 PM 64.4 °F 62.6 °F 94% 30.17 in 1.8 mi Calm Calm - N/A   Mostly Cloudy
11:58 PM 64.0 °F 62.1 °F 93% 30.17 in 3.0 mi Calm Calm - N/A   Mostly Cloudy